Weather History for KJST - December, 2012

Change the Weather History Date:

Tuesday, December 25, 2012

  Actual Average Record
Temperature  
Mean Temperature 29 °F 27 °F  
Max Temperature 32 °F 34 °F 67 °F (1932)
Min Temperature 26 °F 20 °F -15 °F (1983)
Degree Days  
Heating Degree Days 36 38  
Month to date heating degree days 894  
Since 1 July heating degree days 2351  
Cooling Degree Days 0 0  
Month to date cooling degree days 0  
Year to date cooling degree days 382  
Moisture  
Dew Point 28 °F    
Average Humidity 96    
Maximum Humidity 100    
Minimum Humidity 85    
Precipitation  
Precipitation 0.00 in 0.09 in 0.82 in (1944)
Month to date precipitation 2.09  
Year to date precipitation 33.14  
Sea Level Pressure  
Sea Level Pressure 30.09 in    
Wind  
Wind Speed 6 mph (NW)    
Max Wind Speed 13 mph    
Max Gust Speed 20 mph    
Visibility 3 miles    
Events Fog , Rain    
T = Trace of Precipitation, MM = Missing Value Source: NWS Daily Summary

Daily Weather History Graph

Daily Weather History Graph

Search for Another Location

Airport or City:

Trip Planner

Search our weather history database for the weather conditions in past years. The results will help you decide how hot, cold, wet, or windy it might be!

Date:

Astronomy

Dec. 25, 2012 Rise Set
Actual Time 7:36 AM EST 4:54 PM EST
Civil Twilight 7:05 AM EST 5:25 PM EST
Nautical Twilight 6:31 AM EST 5:59 PM EST
Astronomical Twilight 5:58 AM EST 6:33 PM EST
Moon 3:01 PM EST (12/25) 5:07 AM EST (12/25)
Length of Visible Light 10h 19m
Length of Day
9h 18m
Waxing Gibbous, 93% of the Moon is Illuminated
Dec 25
Waxing Gibbous
Dec 28
Full
Jan 4
Last Quarter
Jan 11
New
Jan 18
First Quarter

Hourly Weather History & Observations

Time (EST) Temp. Windchill Dew Point Humidity Pressure Visibility Wind Dir Wind Speed Gust Speed Precip Events Conditions
12:05 AM 28.4 °F 22.2 °F 28.4 °F 100% 29.79 in 0.2 mi WSW 5.8 mph - N/A Fog Light Freezing Fog
12:54 AM 30.9 °F 26.2 °F 30.0 °F 96% 29.88 in 0.2 mi SW 4.6 mph - N/A Fog Light Freezing Fog
1:54 AM 32.0 °F 23.0 °F 32.0 °F 100% 29.91 in 0.2 mi WNW 11.5 mph - N/A Fog Fog
2:54 AM 32.0 °F 22.5 °F 30.9 °F 96% 29.94 in 0.2 mi WNW 12.7 mph - N/A Fog Fog
3:54 AM 30.9 °F 22.8 °F 30.0 °F 96% 29.95 in 0.2 mi West 9.2 mph - N/A Fog Light Freezing Fog
4:54 AM 30.9 °F 23.5 °F 30.9 °F 100% 29.97 in 0.2 mi West 8.1 mph - N/A Fog Light Freezing Fog
5:54 AM 30.9 °F 25.2 °F 30.9 °F 100% 30.01 in 0.2 mi West 5.8 mph - N/A Fog Light Freezing Fog
6:54 AM 30.9 °F 22.8 °F 30.0 °F 96% 30.05 in 0.2 mi West 9.2 mph - N/A Fog Light Freezing Fog
7:54 AM 30.0 °F 21.1 °F 30.0 °F 100% 30.08 in 0.2 mi West 10.4 mph 19.6 mph 0.00 in Fog , Rain Light Freezing Rain
8:54 AM 30.0 °F 22.4 °F 28.9 °F 96% 30.10 in 0.2 mi WNW 8.1 mph - 0.00 in Fog , Rain Light Freezing Rain
9:03 AM 28.4 °F 19.7 °F 28.4 °F 100% 30.03 in 0.2 mi WNW 9.2 mph - 0.00 in Fog Light Freezing Fog
9:54 AM 28.9 °F 21.9 °F 28.9 °F 100% 30.14 in 0.2 mi WNW 6.9 mph - 0.00 in Fog Light Freezing Fog
10:54 AM 28.9 °F 22.8 °F 28.0 °F 96% 30.13 in 0.2 mi NW 5.8 mph - N/A Fog Light Freezing Fog
11:19 AM 28.4 °F 21.2 °F 28.4 °F 100% 30.06 in 0.5 mi NW 6.9 mph - N/A Fog Light Freezing Fog
11:31 AM 28.4 °F 22.2 °F 28.4 °F 100% 30.08 in 1.2 mi NW 5.8 mph - N/A   Overcast
11:40 AM 28.4 °F 23.3 °F 28.4 °F 100% 30.09 in 0.2 mi NW 4.6 mph - N/A Fog Light Freezing Fog
11:54 AM 28.9 °F 22.8 °F 28.0 °F 96% 30.17 in 0.2 mi WNW 5.8 mph - N/A Fog Light Freezing Fog
12:01 PM 28.4 °F 21.2 °F 28.4 °F 100% 30.08 in 1.0 mi WNW 6.9 mph - N/A   Overcast
12:17 PM 28.4 °F 23.3 °F 28.4 °F 100% 30.07 in 0.8 mi NW 4.6 mph - N/A   Overcast
12:34 PM 28.4 °F 21.2 °F 28.4 °F 100% 30.06 in 1.2 mi NW 6.9 mph - 0.00 in   Overcast
12:47 PM 28.4 °F 21.2 °F 28.4 °F 100% 30.06 in 2.5 mi NW 6.9 mph - 0.00 in   Overcast
12:54 PM 28.9 °F 22.8 °F 28.0 °F 96% 30.13 in 3.0 mi NW 5.8 mph - 0.00 in   Overcast
1:06 PM 28.4 °F 22.2 °F 28.4 °F 100% 30.06 in 3.0 mi NNW 5.8 mph - N/A   Overcast
1:22 PM 28.4 °F 23.3 °F 28.4 °F 100% 30.06 in 4.0 mi NNW 4.6 mph - N/A   Overcast
1:32 PM 28.4 °F 24.6 °F 28.4 °F 100% 30.06 in 4.0 mi NW 3.5 mph - N/A   Overcast
1:54 PM 28.9 °F 23.9 °F 27.0 °F 92% 30.14 in 5.0 mi NW 4.6 mph - N/A   Overcast
2:08 PM 28.4 °F 22.2 °F 26.6 °F 93% 30.05 in 5.0 mi NNW 5.8 mph - N/A   Overcast
2:34 PM 28.4 °F 24.6 °F 26.6 °F 93% 30.05 in 4.0 mi NW 3.5 mph - N/A   Overcast
2:54 PM 28.9 °F 23.9 °F 27.0 °F 92% 30.13 in 3.0 mi NNW 4.6 mph - N/A   Overcast
3:38 PM 28.4 °F 22.2 °F 26.6 °F 93% 30.08 in 7.0 mi NNW 5.8 mph - N/A   Overcast
3:54 PM 28.0 °F 21.7 °F 26.1 °F 92% 30.17 in 10.0 mi NNW 5.8 mph - N/A   Overcast
4:54 PM 28.0 °F 24.2 °F 26.1 °F 92% 30.19 in 7.0 mi NNW 3.5 mph - N/A   Overcast
5:19 PM 28.4 °F - 26.6 °F 93% 30.11 in 7.0 mi Calm Calm - N/A   Overcast
5:37 PM 28.4 °F - 26.6 °F 93% 30.11 in 6.0 mi Calm Calm - N/A   Overcast
5:54 PM 28.0 °F 22.8 °F 26.1 °F 92% 30.19 in 6.0 mi North 4.6 mph - N/A   Overcast
6:54 PM 27.0 °F 23.0 °F 24.1 °F 89% 30.20 in 8.0 mi NNE 3.5 mph - N/A   Overcast
7:54 PM 27.0 °F 21.6 °F 23.0 °F 85% 30.20 in 10.0 mi NNE 4.6 mph - N/A   Overcast
8:54 PM 27.0 °F - 23.0 °F 85% 30.21 in 10.0 mi Calm Calm - N/A   Overcast
9:54 PM 27.0 °F - 25.0 °F 92% 30.21 in 7.0 mi Calm Calm - N/A   Overcast
10:48 PM 26.6 °F - 24.8 °F 93% 30.12 in 4.0 mi Calm Calm - N/A   Overcast
10:49 PM 27.0 °F - 25.0 °F 92% 30.21 in 4.0 mi Calm Calm - N/A   Overcast
11:08 PM 26.6 °F 21.2 °F 24.8 °F 93% 30.12 in 5.0 mi East 4.6 mph - N/A   Overcast
11:54 PM 27.0 °F 21.6 °F 25.0 °F 92% 30.22 in 10.0 mi East 4.6 mph - N/A   Overcast